Location: Treviso
(45.6669°N, 12.2430°E)
Time: 04:43:28
(UTC+01:00)

ISS - Pass Details

Date: 16 November 2017
Orbit: 402 x 407 km, 51.6° (Epoch: 13 December)

Event Time Altitude Azimuth Distance (km) Brightness Sun altitude
Exits shadow 05:33:21 43° 237° (WSW) 575 -3.4 -17.2°
Maximum altitude 05:33:42 45° 216° (SW) 556 -3.4 -17.1°
Drops below altitude 10° 05:36:49 10° 142° (SE) 1,450 -0.3 -16.6°
Sets 05:38:58 0° 136° (SE) 2,320 1.0 -16.2°
